Overview Statistics Trail Chart Weather Telemetry Raw packets
 

This is the latest recevied weather packets stored in our database for station/object SV9TNF-55. If no packets are shown the sender has not sent any weather packets the latest 10 day(s).

<< 8 9 10 11 12 13 14 >>
Time Temp. Humidity Pressure Rain* Wind** Luminosity Snow
1788524287 20.56° C 49% 1013.6 hPa 0 mm 6.26 m/s, 292° - -
1788523688 21.11° C 51% 1014 hPa 0 mm 6.26 m/s, 315° - -
1788523086 20.56° C 51% 1014 hPa 0 mm 6.71 m/s, 292° - -
1788522487 20.56° C 56% 1013.9 hPa 0 mm 6.71 m/s, 292° - -
1788521887 21.11° C 56% 1014 hPa 0 mm 5.81 m/s, 292° - -
1788521287 21.11° C 57% 1014 hPa 0 mm 5.81 m/s, 292° - -
1788520687 21.11° C 57% 1013.9 hPa 0 mm 5.81 m/s, 292° - -
1788520087 21.11° C 56% 1013.8 hPa 0 mm 4.92 m/s, 292° - -
1788519487 21.11° C 59% 1014.1 hPa 0 mm 5.36 m/s, 315° - -
1788518886 21.11° C 56% 1014.1 hPa 0 mm 5.36 m/s, 292° - -
1788518286 21.11° C 52% 1013.7 hPa 0 mm 4.47 m/s, 315° - -
1788517686 21.11° C 53% 1014 hPa 0 mm 6.26 m/s, 292° - -
1788517086 21.67° C 51% 1013.9 hPa 0 mm 4.47 m/s, 315° - -
1788516485 21.67° C 52% 1013.8 hPa 0 mm 4.47 m/s, 292° - -
1788515886 21.11° C 56% 1013.8 hPa 0 mm 4.02 m/s, 292° - -
1788515286 21.11° C 58% 1013.7 hPa 0 mm 3.58 m/s, 337° - -
1788514685 20.56° C 54% 1013.7 hPa 0 mm 4.47 m/s, 292° - -
1788514085 21.11° C 55% 1014 hPa 0 mm 5.36 m/s, 292° - -
1788513486 21.11° C 58% 1013.9 hPa 0 mm 4.92 m/s, 292° - -
1788512886 21.11° C 58% 1013.7 hPa 0 mm 4.47 m/s, 315° - -
1788512285 20.56° C 52% 1013.5 hPa 0 mm 3.58 m/s, 315° - -
1788511686 20.56° C 52% 1013.5 hPa 0 mm 3.58 m/s, 315° - -
1788511085 21.11° C 58% 1013.8 hPa 0 mm 4.47 m/s, 292° - -
1788510486 20.56° C 56% 1013.7 hPa 0 mm 4.92 m/s, 292° - -
1788509885 20.56° C 57% 1013.9 hPa 0 mm 4.47 m/s, 292° - -

* Rain latest hour (hover to see other rain measurements)
** Current wind speed in m/s (hover to see current wind gust speed)